Lexington, NE

4:15 PM CST on November 11, 2019 (GMT -0600)
Kelly

Weather History for KLXN - June, 2019

Change the Weather History Date:

Tuesday, June 4, 2019

  Actual Average Record
Temperature  
Mean Temperature 72 °F -  
Max Temperature 85 °F 75 °F 87 °F (1999)
Min Temperature 58 °F 51 °F 6 °F (1999)
Cooling Degree Days 6    
Growing Degree Days 22 (Base 50)    
Moisture  
Dew Point 59 °F    
Average Humidity 67    
Maximum Humidity 93    
Minimum Humidity 38    
Precipitation  
Precipitation 0.07 in - - ()
Sea Level Pressure  
Sea Level Pressure 29.84 in    
Wind  
Wind Speed 10 mph (West)    
Max Wind Speed 36 mph    
Max Gust Speed 47 mph    
Visibility 10 miles    
Events Rain    
Averages and records for this station are not official NWS values.
T = Trace of Precipitation, MM = Missing Value Source: NWS Daily Summary

Daily Weather History Graph

Daily Weather History Graph

Search for Another Location

Airport or City:

Astronomy

Jun. 04, 2019 Rise Set
Actual Time 6:08 AM CDT 9:06 PM CDT
Civil Twilight 5:35 AM CDT 9:39 PM CDT
Nautical Twilight 4:54 AM CDT 10:21 PM CDT
Astronomical Twilight 4:05 AM CDT 11:09 PM CDT
Moon 7:19 AM CDT (6/4) 10:36 PM CDT (6/4)
Length of Visible Light 16h 03m
Length of Day
14h 57m
New Moon, 2% of the Moon is Illuminated
Jun 4
New Moon
Jun 10
First Quarter
Jun 17
Full
Jun 25
Last Quarter
Jul 2
New

Hourly Weather History & Observations

Time (CDT) Temp. Heat Index Dew Point Humidity Pressure Visibility Wind Dir Wind Speed Gust Speed Precip Events Conditions
12:15 AM 64.4 °F - 58.5 °F 81% 29.89 in 10.0 mi WSW 17.3 mph 24.2 mph N/A   Clear
12:35 AM 65.5 °F - 57.2 °F 75% 29.88 in 10.0 mi SW 23.0 mph 33.4 mph N/A   Clear
12:55 AM 65.5 °F - 56.5 °F 73% 29.86 in 10.0 mi SW 13.8 mph 24.2 mph N/A   Clear
1:15 AM 67.8 °F - 55.0 °F 64% 29.81 in 10.0 mi SSW 20.7 mph 27.6 mph N/A   Clear
1:35 AM 70.5 °F - 53.1 °F 54% 29.78 in 10.0 mi ESE 5.8 mph - N/A   Clear
1:55 AM 65.7 °F - 56.5 °F 72% 29.80 in 10.0 mi NNE 3.5 mph - N/A   Scattered Clouds
2:15 AM 69.3 °F - 54.1 °F 59% 29.80 in 10.0 mi South 6.9 mph - N/A   Overcast
2:35 AM 66.2 °F - 56.1 °F 70% 29.81 in 10.0 mi South 4.6 mph - N/A   Overcast
2:55 AM 66.2 °F - 55.8 °F 69% 29.81 in 10.0 mi West 3.5 mph - N/A   Overcast
3:15 AM 62.2 °F - 57.2 °F 84% 29.83 in 10.0 mi NNW 9.2 mph - N/A   Scattered Clouds
3:35 AM 61.3 °F - 56.3 °F 83% 29.83 in 10.0 mi NW 6.9 mph - N/A   Clear
3:55 AM 63.9 °F - 56.1 °F 76% 29.84 in 10.0 mi NW 6.9 mph - N/A   Clear
4:15 AM 61.2 °F - 57.4 °F 87% 29.84 in 10.0 mi WNW 6.9 mph - N/A   Clear
4:35 AM 61.0 °F - 58.1 °F 90% 29.84 in 10.0 mi SW 4.6 mph - N/A   Scattered Clouds
4:55 AM 60.3 °F - 57.4 °F 90% 29.85 in 10.0 mi WSW 5.8 mph - N/A   Scattered Clouds
5:15 AM 59.4 °F - 56.3 °F 90% 29.86 in 10.0 mi SSW 3.5 mph - N/A   Clear
5:35 AM 58.8 °F - 55.8 °F 90% 29.87 in 10.0 mi South 4.6 mph - N/A   Clear
5:55 AM 58.3 °F - 55.8 °F 91% 29.88 in 10.0 mi SSW 4.6 mph - N/A   Clear
6:15 AM 58.1 °F - 55.2 °F 90% 29.87 in 10.0 mi South 4.6 mph - N/A   Clear
6:35 AM 59.0 °F - 55.4 °F 88% 29.87 in 10.0 mi SW 3.5 mph - N/A   Clear
6:55 AM 59.0 °F - 56.7 °F 92% 29.87 in 10.0 mi West 6.9 mph - N/A   Clear
7:15 AM 59.4 °F - 57.4 °F 93% 29.87 in 10.0 mi WNW 3.5 mph - N/A   Clear
7:35 AM 59.7 °F - 57.4 °F 92% 29.87 in 10.0 mi West 6.9 mph - N/A   Clear
7:55 AM 59.9 °F - 57.9 °F 93% 29.86 in 10.0 mi NW 6.9 mph - N/A   Clear
8:15 AM 61.7 °F - 58.5 °F 89% 29.86 in 10.0 mi WNW 3.5 mph - N/A   Clear
8:35 AM 64.9 °F - 58.5 °F 79% 29.87 in 10.0 mi Calm Calm - N/A   Clear
8:55 AM 66.2 °F - 58.3 °F 76% 29.87 in 10.0 mi Calm Calm - N/A   Clear
9:15 AM 67.6 °F - 58.5 °F 72% 29.86 in 10.0 mi Calm Calm - N/A   Clear
9:35 AM 69.1 °F - 59.0 °F 70% 29.87 in 10.0 mi Calm Calm - N/A   Clear
9:55 AM 70.7 °F - 59.0 °F 66% 29.87 in 10.0 mi Calm Calm - N/A   Clear
10:15 AM 72.1 °F - 59.9 °F 65% 29.86 in 10.0 mi SSW 3.5 mph - N/A   Clear
10:35 AM 73.6 °F - 60.6 °F 64% 29.85 in 10.0 mi SW 4.6 mph - N/A   Clear
10:55 AM 74.5 °F - 62.4 °F 66% 29.85 in 10.0 mi SW 8.1 mph - N/A   Clear
11:15 AM 75.2 °F - 62.2 °F 64% 29.85 in 10.0 mi WSW 9.2 mph - N/A   Clear
11:35 AM 76.1 °F - 62.4 °F 62% 29.85 in 10.0 mi WSW 6.9 mph - N/A   Clear
11:55 AM 77.2 °F - 63.9 °F 63% 29.85 in 10.0 mi SW 6.9 mph - N/A   Clear
12:15 PM 77.4 °F - 64.8 °F 65% 29.86 in 10.0 mi WSW 6.9 mph - N/A   Clear
12:35 PM 77.9 °F - 64.6 °F 63% 29.85 in 10.0 mi SW 10.4 mph - N/A   Clear
12:55 PM 79.0 °F - 63.9 °F 60% 29.85 in 10.0 mi West 8.1 mph - N/A   Clear
1:15 PM 79.3 °F - 63.5 °F 58% 29.85 in 10.0 mi WSW 8.1 mph - N/A   Clear
1:35 PM 80.1 °F 81.4 °F 62.8 °F 55% 29.84 in 10.0 mi West 6.9 mph - N/A   Clear
1:55 PM 81.1 °F 82.5 °F 63.3 °F 55% 29.83 in 10.0 mi SW 8.1 mph - N/A   Clear
2:15 PM 81.5 °F 82.7 °F 62.8 °F 53% 29.83 in 10.0 mi SW 9.2 mph - N/A   Clear
2:35 PM 82.6 °F 84.5 °F 65.3 °F 56% 29.82 in 10.0 mi WSW 8.1 mph - N/A   Clear
2:55 PM 82.8 °F 83.4 °F 61.9 °F 49% 29.82 in 10.0 mi SW 8.1 mph - N/A   Clear
3:15 PM - - - N/A% - - North - - N/A   Unknown
3:35 PM - - - N/A% - - North - - N/A   Unknown
3:55 PM 84.4 °F 84.8 °F 61.7 °F 46% 29.81 in 10.0 mi West 9.2 mph - 0.05 in   Clear
4:15 PM 84.7 °F 85.0 °F 61.2 °F 45% 29.80 in 10.0 mi West 12.7 mph 16.1 mph N/A   Clear
4:35 PM 84.6 °F 84.4 °F 59.7 °F 43% 29.79 in 10.0 mi West 12.7 mph 19.6 mph N/A   Clear
4:55 PM 84.6 °F 84.0 °F 58.6 °F 41% 29.79 in 10.0 mi West 11.5 mph - N/A   Clear
5:15 PM 84.7 °F 84.2 °F 58.3 °F 41% 29.78 in 10.0 mi West 13.8 mph - N/A   Clear
5:35 PM 84.7 °F 84.2 °F 58.5 °F 41% 29.78 in 10.0 mi West 11.5 mph 17.3 mph N/A   Clear
5:55 PM 85.1 °F 84.1 °F 57.0 °F 38% 29.78 in 10.0 mi West 10.4 mph 16.1 mph N/A   Clear
6:15 PM 83.7 °F 83.3 °F 58.3 °F 42% 29.77 in 10.0 mi West 9.2 mph - N/A   Clear
6:35 PM 83.1 °F 82.9 °F 58.5 °F 43% 29.77 in 10.0 mi West 10.4 mph - N/A   Clear
6:55 PM 81.5 °F 82.0 °F 59.9 °F 48% 29.77 in 10.0 mi West 8.1 mph - N/A   Clear
7:15 PM 80.8 °F 81.4 °F 60.1 °F 49% 29.77 in 10.0 mi West 8.1 mph - N/A   Clear
7:35 PM 79.5 °F - 61.5 °F 54% 29.78 in 10.0 mi West 5.8 mph - N/A   Clear
7:55 PM 77.4 °F - 63.3 °F 62% 29.78 in 10.0 mi West 6.9 mph - N/A   Clear
8:15 PM 78.3 °F - 62.2 °F 58% 29.79 in 10.0 mi WSW 4.6 mph - N/A   Clear
8:35 PM 77.4 °F - 64.0 °F 63% 29.80 in 10.0 mi WSW 4.6 mph - N/A   Clear
8:55 PM 75.2 °F - 63.1 °F 66% 29.80 in 10.0 mi SW 4.6 mph - N/A   Clear
9:15 PM 71.8 °F - 61.9 °F 71% 29.83 in 10.0 mi NNW 11.5 mph 18.4 mph N/A   Clear
9:35 PM 73.9 °F - 60.3 °F 62% 29.85 in 10.0 mi North 10.4 mph - N/A   Clear
9:55 PM 72.7 °F - 60.3 °F 65% 29.85 in 10.0 mi North 10.4 mph - N/A   Clear
10:15 PM 72.7 °F - 59.9 °F 64% 29.86 in 10.0 mi North 12.7 mph - N/A   Clear
10:35 PM 73.6 °F - 59.4 °F 61% 29.91 in 10.0 mi WNW 27.6 mph 32.2 mph N/A Rain Light Rain
10:55 PM 68.5 °F - 57.7 °F 68% 29.87 in 10.0 mi NNW 34.5 mph 42.6 mph N/A Rain Light Rain
11:15 PM 66.2 °F - 57.9 °F 75% 29.87 in 10.0 mi NNW 35.7 mph 47.2 mph N/A Rain Light Rain
11:35 PM 66.0 °F - 56.3 °F 71% 29.89 in 10.0 mi NW 18.4 mph 27.6 mph 0.02 in Rain Light Rain
11:55 PM 64.9 °F - 57.9 °F 78% 29.87 in 10.0 mi WSW 8.1 mph - 0.02 in Rain Rain